FW9533 Weather Reports


time (UTC)temp
F
wind
direction
speed
knots
gust
knots
rain 1hr
in
rain 24hr
in
rain mn
in
humidity
%
barometer
mb
20260503005804 41 62 0.0 0.9 0.00 0.00 0.00 65 1013.7
20260503005304 42 62 0.0 0.0 0.00 0.00 0.00 64 1014.1
20260503004756 42 62 0.0 0.9 0.00 0.00 0.00 63 1013.8
20260503004255 43 62 0.0 0.9 0.00 0.00 0.00 59 1013.6
20260503003752 44 62 0.9 1.7 0.00 0.00 0.00 58 1013.9
20260503003249 44 61 0.9 0.9 0.00 0.00 0.00 60 1013.8
20260503002745 45 69 1.7 1.7 0.00 0.00 0.00 55 1014.1
20260503002243 46 49 1.7 1.7 0.00 0.00 0.00 44 1014.2
20260503001739 46 50 2.6 4.3 0.00 0.00 0.00 41 1014.1
20260503001235 47 56 2.6 2.6 0.00 0.00 0.00 45 1014.3
20260503000733 47 48 1.7 1.7 0.00 0.00 0.00 38 1014.2
20260503000233 47 56 2.6 2.6 0.00 0.00 0.00 37 1014.1
20260502235727 48 61 2.6 4.3 0.00 0.00 0.00 38 1014.4
20260502235225 49 48 0.9 1.7 0.00 0.00 0.00 37 1014.4
20260502234721 48 122 0.9 2.6 0.00 0.00 0.00 37 1014.5
20260502234218 48 77 0.0 1.7 0.00 0.00 0.00 39 1014.6
20260502233714 48 53 0.9 2.6 0.00 0.00 0.00 38 1014.7
20260502233211 49 53 0.9 4.3 0.00 0.00 0.00 38 1014.5
20260502232707 50 36 0.9 1.7 0.00 0.00 0.00 36 1014.6
20260502232204 50 224 1.7 1.7 0.00 0.00 0.00 35 1014.6
20260502231701 49 75 0.9 1.7 0.00 0.00 0.00 37 1014.6
20260502231159 49 61 1.7 1.7 0.00 0.00 0.00 36 1014.7
20260502230657 49 58 1.7 2.6 0.00 0.00 0.00 37 1014.7
20260502230155 49 66 2.6 2.6 0.00 0.00 0.00 36 1014.6
20260502225650 49 54 1.7 4.3 0.00 0.00 0.00 36 1014.9
20260502225148 48 60 0.9 4.3 0.00 0.00 0.00 39 1014.8
20260502224644 48 50 4.3 6.1 0.00 0.00 0.00 37 1014.7
20260502224141 49 49 3.5 5.2 0.00 0.00 0.00 38 1014.8
20260502223639 51 181 0.9 5.2 0.00 0.00 0.00 36 1015.0
20260502223137 50 251 0.9 0.9 0.00 0.00 0.00 34 1014.8
20260502222634 50 348 0.9 2.6 0.00 0.00 0.00 35 1015.1
20260502222125 50 311 1.7 2.6 0.00 0.00 0.00 36 1015.2
20260502221620 51 214 4.3 5.2 0.00 0.00 0.00 35 1014.9
20260502221118 50 28 1.7 1.7 0.00 0.00 0.00 33 1015.1
20260502220614 50 309 0.9 1.7 0.00 0.00 0.00 33 1015.2
20260502220110 50 233 0.9 5.2 0.00 0.00 0.00 38 1015.2
20260502215607 49 264 3.5 6.1 0.00 0.00 0.00 35 1015.2
20260502215104 49 276 3.5 6.1 0.00 0.00 0.00 35 1015.3
20260502214601 50 272 3.5 4.3 0.00 0.00 0.00 39 1015.3
20260502214058 50 336 2.6 2.6 0.00 0.00 0.00 36 1015.5
20260502213555 50 269 3.5 4.3 0.00 0.00 0.00 39 1015.4
20260502213053 50 265 6.1 7.0 0.00 0.00 0.00 39 1015.7
20260502212552 49 322 2.6 6.1 0.00 0.00 0.00 35 1015.5
20260502212049 49 253 5.2 9.6 0.00 0.00 0.00 35 1015.4
20260502211544 49 251 2.6 7.8 0.00 0.00 0.00 33 1015.7
20260502211042 50 312 1.7 2.6 0.00 0.00 0.00 35 1015.5
20260502210539 50 244 2.6 5.2 0.00 0.00 0.00 35 1015.8
20260502210036 49 278 6.1 7.0 0.00 0.00 0.00 37 1015.8
20260502205532 50 266 7.0 8.7 0.00 0.00 0.00 36 1015.9
20260502205030 50 315 4.3 6.1 0.00 0.00 0.00 34 1015.7
20260502204526 49 266 3.5 7.0 0.00 0.00 0.00 33 1016.0
20260502204024 49 48 3.5 5.2 0.00 0.00 0.00 33 1015.9
20260502203521 50 301 5.2 7.8 0.00 0.00 0.00 34 1016.1
20260502203018 49 230 2.6 4.3 0.00 0.00 0.00 35 1016.2
20260502202514 49 255 5.2 8.7 0.00 0.00 0.00 32 1016.3
20260502202013 48 338 5.2 7.0 0.00 0.00 0.00 37 1016.2
20260502201508 49 245 4.3 7.0 0.00 0.00 0.00 34 1016.1
20260502201005 48 284 1.7 7.0 0.00 0.00 0.00 33 1016.4
20260502200501 48 330 3.5 5.2 0.00 0.00 0.00 35 1016.3
20260502195959 48 283 6.1 8.7 0.00 0.00 0.00 37 1016.5
20260502195456 48 264 1.7 7.8 0.00 0.00 0.00 37 1016.5
20260502194952 48 305 4.3 6.1 0.00 0.00 0.00 42 1016.6
20260502194449 47 316 2.6 4.3 0.00 0.00 0.00 41 1016.7
20260502193944 47 305 5.2 9.6 0.00 0.00 0.00 40 1017.0
20260502193442 47 218 9.6 9.6 0.00 0.00 0.00 38 1016.7
20260502192938 46 42 1.7 8.7 0.00 0.00 0.00 38 1016.9
20260502192435 47 230 10.4 12.2 0.00 0.00 0.00 37 1016.7
20260502191931 47 294 2.6 5.2 0.00 0.00 0.00 40 1017.0
20260502191429 47 298 4.3 7.0 0.00 0.00 0.00 43 1016.9
20260502190927 47 239 4.3 13.0 0.00 0.00 0.00 39 1017.0
20260502190424 47 310 4.3 7.8 0.00 0.00 0.00 41 1016.8
20260502185920 47 265 5.2 7.8 0.00 0.00 0.00 37 1017.0
20260502185415 46 261 3.5 6.1 0.00 0.00 0.00 40 1017.3
20260502184913 46 250 9.6 11.3 0.00 0.00 0.00 39 1017.2
20260502184408 46 307 3.5 7.0 0.00 0.00 0.00 37 1017.2
20260502183905 47 270 7.8 9.6 0.00 0.00 0.00 38 1017.3
20260502183401 47 270 7.0 11.3 0.00 0.00 0.00 40 1017.5
20260502182856 47 275 5.2 8.7 0.00 0.00 0.00 37 1017.3
20260502182352 46 285 7.8 9.6 0.00 0.00 0.00 37 1017.1
20260502181848 47 301 5.2 8.7 0.00 0.00 0.00 37 1017.2
20260502181347 45 250 5.2 8.7 0.00 0.00 0.00 37 1017.3
20260502180845 46 305 5.2 7.0 0.00 0.00 0.00 39 1017.2
20260502180342 47 291 4.3 8.7 0.00 0.00 0.00 37 1017.4
20260502170301 46 232 6.1 9.6 0.00 0.00 0.00 41 1017.7
20260502164248 45 250 6.1 12.2 0.00 0.00 0.00 37 1017.8
20260502163744 45 274 7.0 8.7 0.00 0.00 0.00 37 1017.8
20260502163241 45 236 9.6 12.2 0.00 0.00 0.00 38 1017.8
20260502162738 44 297 6.1 12.2 0.00 0.00 0.00 38 1017.9
20260502162234 44 285 7.8 9.6 0.00 0.00 0.00 40 1017.8
20260502161731 45 264 7.0 7.8 0.00 0.00 0.00 41 1018.0
20260502161227 45 251 7.8 11.3 0.00 0.00 0.00 42 1018.2
20260502160726 45 280 4.3 7.0 0.00 0.00 0.00 42 1018.0
20260502160225 45 255 7.8 9.6 0.00 0.00 0.00 41 1018.1
20260502152149 44 284 3.5 4.3 0.00 0.00 0.00 45 1018.2
20260502151646 44 295 0.9 9.6 0.00 0.00 0.00 46 1018.2
20260502151143 44 311 2.6 7.8 0.00 0.00 0.00 46 1018.2
20260502150641 43 271 8.7 12.2 0.00 0.00 0.00 46 1018.2
20260502150137 43 227 7.0 8.7 0.00 0.00 0.00 48 1018.3
20260502130526 39 276 3.5 6.1 0.00 0.00 0.00 64 1018.8
20260502123509 36 187 2.6 4.3 0.00 0.00 0.00 81 1018.7
20260502123005 36 232 3.5 5.2 0.00 0.00 0.00 80 1018.8
20260502122501 36 253 2.6 2.6 0.00 0.00 0.00 81 1018.7
20260502121959 36 229 2.6 2.6 0.00 0.00 0.00 82 1018.9
20260502121456 35 216 1.7 2.6 0.00 0.00 0.00 86 1018.9
20260502120954 35 216 0.9 1.7 0.00 0.00 0.00 86 1018.6
20260502120450 34 207 1.7 1.7 0.00 0.00 0.00 85 1018.6
20260502115444 33 208 1.7 1.7 0.00 0.00 0.00 87 1018.9
20260502114940 32 212 0.9 1.7 0.00 0.00 0.00 89 1018.8
20260502114437 31 214 0.9 1.7 0.00 0.00 0.00 91 1018.8
20260502113935 30 221 0.0 0.0 0.00 0.00 0.00 93 1018.6
20260502113432 30 219 1.7 1.7 0.00 0.00 0.00 95 1018.8
20260502112931 29 221 0.9 1.7 0.00 0.00 0.00 97 1018.6
20260502112428 29 221 0.9 1.7 0.00 0.00 0.00 99 1018.6
20260502111925 29 221 0.9 0.9 0.00 0.00 0.00 98 1018.5
20260502111422 29 220 0.9 0.9 0.00 0.00 0.00 99 1018.8
20260502110920 28 220 0.9 1.7 0.00 0.00 0.00 99 1018.7
20260502110417 28 222 0.9 1.7 0.00 0.00 0.00 99 1018.5
20260502105914 28 228 0.9 1.7 0.00 0.00 0.00 99 1018.5
20260502105411 27 254 0.0 0.0 0.00 0.00 0.00 99 1018.5
20260502104909 27 256 0.0 0.0 0.00 0.00 0.00 99 1018.4
20260502104406 26 256 0.0 0.0 0.00 0.00 0.00 99 1018.7
20260502103904 26 256 0.9 0.9 0.00 0.00 0.00 99 1018.5
20260502103401 26 256 0.9 0.9 0.00 0.00 0.00 99 1018.6
20260502102858 27 256 0.9 1.7 0.00 0.00 0.00 99 1018.5
20260502102355 27 254 0.9 0.9 0.00 0.00 0.00 99 1018.7
20260502101852 27 254 0.9 0.9 0.00 0.00 0.00 99 1018.6
20260502101350 27 259 0.0 0.0 0.00 0.00 0.00 99 1018.4
20260502100848 26 259 0.0 0.0 0.00 0.00 0.00 99 1018.4
20260502100347 26 259 0.0 0.9 0.00 0.00 0.00 99 1018.6
20260502091321 27 259 0.0 0.0 0.00 0.00 0.00 99 1018.4
20260502090819 27 259 0.0 0.0 0.00 0.00 0.00 99 1018.3
20260502090315 27 259 0.0 0.0 0.00 0.00 0.00 99 1018.2
20260502071210 29 259 0.0 0.0 0.00 0.00 0.00 99 1018.0
20260502070709 29 259 0.0 0.0 0.00 0.00 0.00 99 1018.3
20260502070206 29 259 0.0 0.0 0.00 0.00 0.00 99 1018.1
20260502065704 29 259 0.0 0.0 0.00 0.00 0.00 99 1018.2
20260502065201 29 259 0.0 0.0 0.00 0.00 0.00 99 1018.3
20260502064700 30 259 0.0 0.0 0.00 0.00 0.00 99 1018.2
20260502064157 30 259 0.0 0.0 0.00 0.00 0.00 99 1018.2
20260502063655 29 259 0.0 0.0 0.00 0.00 0.00 99 1018.3
20260502063152 29 259 0.0 0.0 0.00 0.00 0.00 99 1018.2
20260502062649 29 259 0.0 0.0 0.00 0.00 0.00 99 1018.1
20260502062147 29 259 0.0 0.0 0.00 0.00 0.00 99 1018.1
20260502061645 29 259 0.0 0.0 0.00 0.00 0.00 99 1018.2
20260502061142 29 259 0.0 0.0 0.00 0.00 0.00 99 1018.2
20260502060642 30 259 0.0 0.0 0.00 0.00 0.00 99 1018.4
20260502060139 30 259 0.0 0.0 0.00 0.00 0.00 99 1018.2
20260502055637 30 259 0.0 0.0 0.00 0.00 0.00 99 1018.1
20260502055135 30 259 0.0 0.0 0.00 0.00 0.00 99 1018.0
20260502054634 30 259 0.0 0.0 0.00 0.00 0.00 99 1018.3
20260502054131 30 259 0.0 0.0 0.00 0.00 0.00 99 1018.3
20260502053628 30 259 0.0 0.0 0.00 0.00 0.00 99 1018.0
20260502053125 30 259 0.0 0.0 0.00 0.00 0.00 99 1018.2
20260502052623 30 259 0.0 0.0 0.00 0.00 0.00 99 1018.5
20260502052121 30 259 0.0 0.0 0.00 0.00 0.00 99 1018.3
20260502051619 30 259 0.0 0.0 0.00 0.00 0.00 99 1018.2
20260502051117 30 259 0.0 0.0 0.00 0.00 0.00 99 1018.5
20260502050613 30 259 0.0 0.0 0.00 0.00 0.00 99 1018.2
20260502050110 30 259 0.0 0.0 0.00 0.00 0.00 99 1018.0
20260502045606 31 259 0.0 0.0 0.00 0.00 0.00 99 1018.2
20260502045103 31 259 0.0 0.0 0.00 0.00 0.00 99 1018.1
20260502044559 30 259 0.0 0.0 0.00 0.00 0.00 99 1018.1
20260502044056 31 259 0.0 0.0 0.00 0.00 0.00 99 1018.1
20260502043554 31 259 0.0 0.0 0.00 0.00 0.00 99 1018.2
20260502043050 31 259 0.0 0.0 0.00 0.00 0.00 99 1018.3
20260502042545 31 259 0.0 0.0 0.00 0.00 0.00 99 1018.1
20260502042043 32 259 0.0 0.0 0.00 0.00 0.00 99 1018.3
20260502041540 32 259 0.0 0.0 0.00 0.00 0.00 99 1018.1
20260502041037 32 259 0.0 0.0 0.00 0.00 0.00 99 1018.2
20260502040534 32 259 0.0 0.0 0.00 0.00 0.00 98 1018.1
20260502040031 33 259 0.0 0.0 0.00 0.00 0.00 97 1018.1
20260502035527 33 260 0.0 0.0 0.00 0.00 0.00 96 1018.0
20260502035025 33 259 0.9 0.9 0.00 0.00 0.00 95 1018.0
20260502034522 33 259 0.9 0.9 0.00 0.00 0.00 95 1017.9
20260502034021 33 259 0.9 0.9 0.00 0.00 0.00 94 1018.4
20260502033518 34 260 0.9 0.9 0.00 0.00 0.00 93 1018.2
20260502033015 34 257 0.9 1.7 0.00 0.00 0.00 93 1018.2
20260502032511 34 256 0.9 1.7 0.00 0.00 0.00 93 1018.3
20260502032008 35 267 0.9 1.7 0.00 0.00 0.00 93 1018.0
20260502031506 35 274 1.7 2.6 0.00 0.00 0.00 92 1018.2
20260502031004 35 273 1.7 1.7 0.00 0.00 0.00 91 1018.3
20260502030502 35 273 0.9 1.7 0.00 0.00 0.00 90 1018.3
20260502030000 36 263 0.9 1.7 0.00 0.00 0.00 90 1018.3
20260502025457 36 267 1.7 1.7 0.00 0.00 0.00 90 1018.2
20260502024955 36 263 2.6 2.6 0.00 0.00 0.00 89 1018.4
20260502024452 36 257 1.7 2.6 0.00 0.00 0.00 89 1018.2
20260502023950 36 266 2.6 4.3 0.00 0.00 0.00 88 1018.1
20260502023447 36 251 2.6 4.3 0.00 0.00 0.00 88 1018.4
20260502022945 36 257 2.6 4.3 0.00 0.00 0.00 88 1018.3
20260502022441 37 263 1.7 4.3 0.00 0.00 0.00 88 1018.4
20260502021938 37 256 2.6 4.3 0.00 0.00 0.00 87 1018.4
20260502021436 37 274 1.7 2.6 0.00 0.00 0.00 88 1018.3
20260502020933 37 267 2.6 2.6 0.00 0.00 0.00 87 1018.3
20260502020431 37 276 2.6 2.6 0.00 0.00 0.00 87 1018.3
20260502015927 37 259 2.6 4.3 0.00 0.00 0.00 87 1018.3
20260502015425 37 260 2.6 4.3 0.00 0.00 0.00 87 1018.0
20260502014921 37 281 2.6 2.6 0.00 0.00 0.00 87 1017.9
20260502014418 37 275 2.6 4.3 0.00 0.00 0.00 86 1018.0
20260502013915 37 270 3.5 4.3 0.00 0.00 0.00 86 1018.2
20260502013410 37 264 2.6 4.3 0.00 0.00 0.00 86 1018.2
20260502012907 37 257 2.6 4.3 0.00 0.00 0.00 86 1017.9
20260502012405 37 283 1.7 4.3 0.00 0.00 0.00 85 1018.2
20260502011902 37 266 2.6 2.6 0.00 0.00 0.00 85 1018.1
20260502011358 37 279 4.3 6.1 0.00 0.00 0.00 85 1017.7
20260502010855 37 273 1.7 5.2 0.00 0.00 0.00 84 1018.0
20260502010352 37 243 2.6 4.3 0.00 0.00 0.00 84 1017.9